Location: Stoke Bliss
(52.2667°N, 2.5167°W)
Time: 07:23:26
(UTC+00:00)

Envisat - Pass Details

Date: 02 December 2021
Orbit: 764 x 766 km, 98.2° (Epoch: 17 January)

Event Time Altitude Azimuth Distance (km) Brightness Sun altitude
Rises 06:43:25 0° 7° (N) 3,248 6.1 -10.8°
Reaches altitude 10° 06:46:03 10° 355° (N) 2,317 5.2 -10.5°
Maximum altitude 06:50:12 26° 301° (WNW) 1,486 3.9 -9.9°
Drops below altitude 10° 06:54:20 10° 246° (WSW) 2,304 5.1 -9.3°
Sets 06:56:57 0° 234° (SW) 3,225 5.9 -8.9°
